CZ-6A DEB, 60871

Orbit data source: Space-Track

CZ-6A DEB, 60871 is space debris in LEO originally from a launch on Tue, 06 Aug 2024 UTC launched from the Taiyaun Space Center, China (TSC). Debris objects in space refer to the collection of defunct objects orbiting the Earth. Examples of debris include non-operational satellites, rocket bodies, and fragments generated from explosions, collisions, or faulty payload assembly.

Loading next visibility...
Identifier
60871, 2024-140KA
Orbit
LEO
Country
Flag of CNCN / PRC
Related business
Manufacturer
SAST
Mission
Spacecraft
Bus & Motor
Unknown
Mass
Unknown
Launch date (UTC)
2024-08-06 (2 years ago)
Launch vehicle
Unknown
Launch site
Taiyaun Space Center, China (TSC)
Object type
Payload
Rocket body
Debris
Shape & HBR
Unknown shape, 0.2 m
Radar Cross Section
Medium (>0.1 m² and <1 m²)

Expand to show TLE details & history
Last TLE update: 11 hours ago

TLE from 11 hours ago
0 CZ-6A DEB
1 60871U 24140KA  26171.38515881  .00003207  00000-0  65049-3 0  9998
2 60871  89.0630 275.0958 0093889 191.9334 167.9654 14.58212292 96697
Epoch: 2026-06-20T09:14Z
TLE epoch observation values (Epoch: 2026-06-20T09:14:37.721Z)
Latitude
-0.00002°
Longitude
-132.16191°
Altitude
767.087 km
Speed
7.436 km/s
True Right ascension
18h 20m 22s
True Declination
0° 00' 00"
Sunlit
Object was in full shadow at epoch
Visualization orbit readout
Latitude
Unknown
Longitude
Unknown
Altitude
Unknown
Speed
Unknown
Apparent Right ascension
Unknown
Apparent Declination
Unknown
Sunlit
N/A
Visualization observer readout
Local Sidereal Time
07:19:00
Azimuth
Unknown
Elevation
Unknown
Doppler factor
Unknown
Orbital elements
Apogee altitude
762.265 km
Perigee altitude
629.431 km
Semi-major axis
7,073.985 km
Eccentricity
0.00939
Inclination
89.063°
RAAN
275.0958°
Arg. of periapsis
191.9334°
True anomaly
168.18718°
Mean anomaly
167.9654°
Eccentric anomaly
168.07654°
Mean motion
3.64793 °/min
Orbital period
98.69 mins
BSTAR
0.00065049
Loading maneuver chart data...
Computing Atmospheric mass density...
Loading historical data...
Loading historical data...
Loading historical data...
Loading historical data...
Loading historical data...
Loading historical data...
Loading historical data...

Documentation

Showing up to 5 results
|